owner,sensor,date,latitude,longitude,vertical_datum,mass_concentration_of_oxygen_in_sea_water,qcFlag 
DISL,ioos:station:DISL:BSCA:1,2017-09-01T00:00:00Z,30.3288,-87.8293,2.182,7.71,1111122 
DISL,ioos:station:DISL:BSCA:1,2017-09-01T00:30:00Z,30.3288,-87.8293,2.099,7.61,1111122 
DISL,ioos:station:DISL:BSCA:1,2017-09-01T01:00:00Z,30.3288,-87.8293,2.136,7.08,1111122 
DISL,ioos:station:DISL:BSCA:1,2017-09-01T01:30:00Z,30.3288,-87.8293,2.131,6.64,1111122 
DISL,ioos:station:DISL:BSCA:1,2017-09-01T02:00:00Z,30.3288,-87.8293,2.103,6.6,1111122 
DISL,ioos:station:DISL:BSCA:1,2017-09-01T02:30:00Z,30.3288,-87.8293,2.122,6.79,1111122 
DISL,ioos:station:DISL:BSCA:1,2017-09-01T03:00:00Z,30.3288,-87.8293,2.248,6.63,1111122 
DISL,ioos:station:DISL:BSCA:1,2017-09-01T03:30:00Z,30.3288,-87.8293,2.127,6.6,1111122 
DISL,ioos:station:DISL:BSCA:1,2017-09-01T04:00:00Z,30.3288,-87.8293,2.096,6.67,1111122 
DISL,ioos:station:DISL:BSCA:1,2017-09-01T04:30:00Z,30.3288,-87.8293,2.19,6.72,1111122 
DISL,ioos:station:DISL:BSCA:1,2017-09-01T05:00:00Z,30.3288,-87.8293,2.19,6.74,1111122 
DISL,ioos:station:DISL:BSCA:1,2017-09-01T05:30:00Z,30.3288,-87.8293,2.196,6.7,1111122 
DISL,ioos:station:DISL:BSCA:1,2017-09-01T06:00:00Z,30.3288,-87.8293,2.205,6.66,1111122 
DISL,ioos:station:DISL:BSCA:1,2017-09-01T06:30:00Z,30.3288,-87.8293,2.2,6.67,1111122 
DISL,ioos:station:DISL:BSCA:1,2017-09-01T07:00:00Z,30.3288,-87.8293,2.201,6.77,1111122 
DISL,ioos:station:DISL:BSCA:1,2017-09-01T07:30:00Z,30.3288,-87.8293,2.194,6.63,1111122 
DISL,ioos:station:DISL:BSCA:1,2017-09-01T08:00:00Z,30.3288,-87.8293,2.203,6.36,1111122 
DISL,ioos:station:DISL:BSCA:1,2017-09-01T08:30:00Z,30.3288,-87.8293,2.209,6.28,1111122 
DISL,ioos:station:DISL:BSCA:1,2017-09-01T09:00:00Z,30.3288,-87.8293,2.254,6.37,1111122 
DISL,ioos:station:DISL:BSCA:1,2017-09-01T09:30:00Z,30.3288,-87.8293,2.268,6.22,1111122 
DISL,ioos:station:DISL:BSCA:1,2017-09-01T10:00:00Z,30.3288,-87.8293,2.29,6.12,1111122 
DISL,ioos:station:DISL:BSCA:1,2017-09-01T10:30:00Z,30.3288,-87.8293,2.291,4.06,1111122 
DISL,ioos:station:DISL:BSCA:1,2017-09-01T11:00:00Z,30.3288,-87.8293,2.313,4.46,1111122 
DISL,ioos:station:DISL:BSCA:1,2017-09-01T11:30:00Z,30.3288,-87.8293,2.333,4.56,1111122 
DISL,ioos:station:DISL:BSCA:1,2017-09-01T12:00:00Z,30.3288,-87.8293,2.315,4.76,1111122 
DISL,ioos:station:DISL:BSCA:1,2017-09-01T12:30:00Z,30.3288,-87.8293,2.318,5.08,1111122 
DISL,ioos:station:DISL:BSCA:1,2017-09-01T13:00:00Z,30.3288,-87.8293,2.301,5.1,1111122 
DISL,ioos:station:DISL:BSCA:1,2017-09-01T13:30:00Z,30.3288,-87.8293,2.293,4.98,1111122 
DISL,ioos:station:DISL:BSCA:1,2017-09-01T14:00:00Z,30.3288,-87.8293,2.289,4.97,1111122 
DISL,ioos:station:DISL:BSCA:1,2017-09-01T14:30:00Z,30.3288,-87.8293,2.278,5.28,1111122 
DISL,ioos:station:DISL:BSCA:1,2017-09-01T15:00:00Z,30.3288,-87.8293,2.271,5.0,1111122 
DISL,ioos:station:DISL:BSCA:1,2017-09-01T15:30:00Z,30.3288,-87.8293,2.243,5.31,1111122 
DISL,ioos:station:DISL:BSCA:1,2017-09-01T16:00:00Z,30.3288,-87.8293,2.218,5.35,1111122 
DISL,ioos:station:DISL:BSCA:1,2017-09-01T16:30:00Z,30.3288,-87.8293,2.193,5.37,1111122 
DISL,ioos:station:DISL:BSCA:1,2017-09-01T17:00:00Z,30.3288,-87.8293,2.162,4.99,1111122 
DISL,ioos:station:DISL:BSCA:1,2017-09-01T17:30:00Z,30.3288,-87.8293,2.15,4.78,1111122 
DISL,ioos:station:DISL:BSCA:1,2017-09-01T18:00:00Z,30.3288,-87.8293,2.137,4.47,1111122 
DISL,ioos:station:DISL:BSCA:1,2017-09-01T18:30:00Z,30.3288,-87.8293,2.112,4.76,1111122 
DISL,ioos:station:DISL:BSCA:1,2017-09-01T19:00:00Z,30.3288,-87.8293,2.083,4.87,1111122 
DISL,ioos:station:DISL:BSCA:1,2017-09-01T19:30:00Z,30.3288,-87.8293,2.057,4.91,1111122 
DISL,ioos:station:DISL:BSCA:1,2017-09-01T20:00:00Z,30.3288,-87.8293,2.019,4.89,1111122 
DISL,ioos:station:DISL:BSCA:1,2017-09-01T20:30:00Z,30.3288,-87.8293,1.989,4.91,1111122 
DISL,ioos:station:DISL:BSCA:1,2017-09-01T21:00:00Z,30.3288,-87.8293,1.972,4.8,1111122 
DISL,ioos:station:DISL:BSCA:1,2017-09-01T21:30:00Z,30.3288,-87.8293,1.96,5.06,1111122 
DISL,ioos:station:DISL:BSCA:1,2017-09-01T22:00:00Z,30.3288,-87.8293,1.939,5.12,1111122 
DISL,ioos:station:DISL:BSCA:1,2017-09-01T22:30:00Z,30.3288,-87.8293,1.936,4.66,1111122 
DISL,ioos:station:DISL:BSCA:1,2017-09-01T23:00:00Z,30.3288,-87.8293,1.908,4.43,1111122 
DISL,ioos:station:DISL:BSCA:1,2017-09-01T23:30:00Z,30.3288,-87.8293,1.909,4.19,1111122 
DISL,ioos:station:DISL:BSCA:1,2017-09-02T00:00:00Z,30.3288,-87.8293,1.889,3.95,1111122 
DISL,ioos:station:DISL:BSCA:1,2017-09-02T00:30:00Z,30.3288,-87.8293,1.895,3.96,1111122 
DISL,ioos:station:DISL:BSCA:1,2017-09-02T01:00:00Z,30.3288,-87.8293,1.901,3.89,1111122 
DISL,ioos:station:DISL:BSCA:1,2017-09-02T01:30:00Z,30.3288,-87.8293,1.916,3.57,1111122 
DISL,ioos:station:DISL:BSCA:1,2017-09-02T02:00:00Z,30.3288,-87.8293,1.942,3.18,1111122 
DISL,ioos:station:DISL:BSCA:1,2017-09-02T02:30:00Z,30.3288,-87.8293,1.963,2.72,1111122 
DISL,ioos:station:DISL:BSCA:1,2017-09-02T03:00:00Z,30.3288,-87.8293,2.002,2.74,1111122 
DISL,ioos:station:DISL:BSCA:1,2017-09-02T03:30:00Z,30.3288,-87.8293,2.026,3.59,1111122 
DISL,ioos:station:DISL:BSCA:1,2017-09-02T04:00:00Z,30.3288,-87.8293,2.058,3.74,1111122 
DISL,ioos:station:DISL:BSCA:1,2017-09-02T04:30:00Z,30.3288,-87.8293,2.052,3.71,1111122 
DISL,ioos:station:DISL:BSCA:1,2017-09-02T05:00:00Z,30.3288,-87.8293,2.046,5.0,1111122 
DISL,ioos:station:DISL:BSCA:1,2017-09-02T05:30:00Z,30.3288,-87.8293,2.06,5.18,1111122 
DISL,ioos:station:DISL:BSCA:1,2017-09-02T06:00:00Z,30.3288,-87.8293,2.061,3.34,1111122 
DISL,ioos:station:DISL:BSCA:1,2017-09-02T06:30:00Z,30.3288,-87.8293,2.086,1.65,1111122 
DISL,ioos:station:DISL:BSCA:1,2017-09-02T07:00:00Z,30.3288,-87.8293,2.079,2.74,1111122 
DISL,ioos:station:DISL:BSCA:1,2017-09-02T07:30:00Z,30.3288,-87.8293,2.102,2.16,1111122 
DISL,ioos:station:DISL:BSCA:1,2017-09-02T08:00:00Z,30.3288,-87.8293,2.124,3.28,1111122 
DISL,ioos:station:DISL:BSCA:1,2017-09-02T08:30:00Z,30.3288,-87.8293,2.138,0.62,1111122 
DISL,ioos:station:DISL:BSCA:1,2017-09-02T09:00:00Z,30.3288,-87.8293,2.135,1.07,1111122 
DISL,ioos:station:DISL:BSCA:1,2017-09-02T09:30:00Z,30.3288,-87.8293,2.152,0.56,1111122 
DISL,ioos:station:DISL:BSCA:1,2017-09-02T10:00:00Z,30.3288,-87.8293,2.176,0.56,1111122 
DISL,ioos:station:DISL:BSCA:1,2017-09-02T10:30:00Z,30.3288,-87.8293,2.169,0.54,1111122 
DISL,ioos:station:DISL:BSCA:1,2017-09-02T11:00:00Z,30.3288,-87.8293,2.18,0.53,1111122 
DISL,ioos:station:DISL:BSCA:1,2017-09-02T11:30:00Z,30.3288,-87.8293,2.183,0.53,1111122 
DISL,ioos:station:DISL:BSCA:1,2017-09-02T12:00:00Z,30.3288,-87.8293,2.192,2.23,1111122 
DISL,ioos:station:DISL:BSCA:1,2017-09-02T12:30:00Z,30.3288,-87.8293,2.2,1.96,1111122 
DISL,ioos:station:DISL:BSCA:1,2017-09-02T13:00:00Z,30.3288,-87.8293,2.199,0.53,1111122 
DISL,ioos:station:DISL:BSCA:1,2017-09-02T13:30:00Z,30.3288,-87.8293,2.223,2.69,1111122 
DISL,ioos:station:DISL:BSCA:1,2017-09-02T14:00:00Z,30.3288,-87.8293,2.232,2.27,1111122 
DISL,ioos:station:DISL:BSCA:1,2017-09-02T14:30:00Z,30.3288,-87.8293,2.239,1.45,1111122 
DISL,ioos:station:DISL:BSCA:1,2017-09-02T15:00:00Z,30.3288,-87.8293,2.223,0.55,1111122 
DISL,ioos:station:DISL:BSCA:1,2017-09-02T15:30:00Z,30.3288,-87.8293,2.208,2.29,1111122 
DISL,ioos:station:DISL:BSCA:1,2017-09-02T16:00:00Z,30.3288,-87.8293,2.183,3.28,1111122 
DISL,ioos:station:DISL:BSCA:1,2017-09-02T16:30:00Z,30.3288,-87.8293,2.166,4.44,1111122 
DISL,ioos:station:DISL:BSCA:1,2017-09-02T17:00:00Z,30.3288,-87.8293,2.138,5.55,1111122 
DISL,ioos:station:DISL:BSCA:1,2017-09-02T17:30:00Z,30.3288,-87.8293,2.121,2.73,1111122 
DISL,ioos:station:DISL:BSCA:1,2017-09-02T18:00:00Z,30.3288,-87.8293,2.085,5.84,1111122 
DISL,ioos:station:DISL:BSCA:1,2017-09-02T18:30:00Z,30.3288,-87.8293,2.049,5.99,1111122 
DISL,ioos:station:DISL:BSCA:1,2017-09-02T19:00:00Z,30.3288,-87.8293,2.017,6.51,1111122 
DISL,ioos:station:DISL:BSCA:1,2017-09-02T19:30:00Z,30.3288,-87.8293,1.988,6.63,1111122 
DISL,ioos:station:DISL:BSCA:1,2017-09-02T20:00:00Z,30.3288,-87.8293,1.969,6.99,1111122 
DISL,ioos:station:DISL:BSCA:1,2017-09-02T20:30:00Z,30.3288,-87.8293,1.954,6.09,1111122 
DISL,ioos:station:DISL:BSCA:1,2017-09-02T21:00:00Z,30.3288,-87.8293,1.928,6.89,1111122 
DISL,ioos:station:DISL:BSCA:1,2017-09-02T21:30:00Z,30.3288,-87.8293,1.907,8.21,1111122 
DISL,ioos:station:DISL:BSCA:1,2017-09-02T22:00:00Z,30.3288,-87.8293,1.882,5.59,1111122 
DISL,ioos:station:DISL:BSCA:1,2017-09-02T22:30:00Z,30.3288,-87.8293,1.863,5.07,1111122 
DISL,ioos:station:DISL:BSCA:1,2017-09-02T23:00:00Z,30.3288,-87.8293,1.847,2.78,1111122 
DISL,ioos:station:DISL:BSCA:1,2017-09-02T23:30:00Z,30.3288,-87.8293,1.843,3.42,1111122 
DISL,ioos:station:DISL:BSCA:1,2017-09-03T00:00:00Z,30.3288,-87.8293,1.823,1.91,1111122 
DISL,ioos:station:DISL:BSCA:1,2017-09-03T00:30:00Z,30.3288,-87.8293,1.818,1.96,1111122 
DISL,ioos:station:DISL:BSCA:1,2017-09-03T01:00:00Z,30.3288,-87.8293,1.824,2.24,1111122 
DISL,ioos:station:DISL:BSCA:1,2017-09-03T01:30:00Z,30.3288,-87.8293,1.837,1.01,1111122 
DISL,ioos:station:DISL:BSCA:1,2017-09-03T02:00:00Z,30.3288,-87.8293,1.855,0.57,1111122 
DISL,ioos:station:DISL:BSCA:1,2017-09-03T02:30:00Z,30.3288,-87.8293,1.866,0.52,1111122 
DISL,ioos:station:DISL:BSCA:1,2017-09-03T03:00:00Z,30.3288,-87.8293,1.896,0.53,1111122 
DISL,ioos:station:DISL:BSCA:1,2017-09-03T03:30:00Z,30.3288,-87.8293,1.916,0.53,1111122 
DISL,ioos:station:DISL:BSCA:1,2017-09-03T04:00:00Z,30.3288,-87.8293,1.955,1.11,1111122 
DISL,ioos:station:DISL:BSCA:1,2017-09-03T04:30:00Z,30.3288,-87.8293,1.965,0.53,1111122 
DISL,ioos:station:DISL:BSCA:1,2017-09-03T05:00:00Z,30.3288,-87.8293,2.015,3.04,1111122 
DISL,ioos:station:DISL:BSCA:1,2017-09-03T05:30:00Z,30.3288,-87.8293,2.004,1.93,1111122 
DISL,ioos:station:DISL:BSCA:1,2017-09-03T06:00:00Z,30.3288,-87.8293,2.025,2.74,1111122 
DISL,ioos:station:DISL:BSCA:1,2017-09-03T06:30:00Z,30.3288,-87.8293,2.017,4.4,1111122 
DISL,ioos:station:DISL:BSCA:1,2017-09-03T07:00:00Z,30.3288,-87.8293,2.024,4.77,1111122 
DISL,ioos:station:DISL:BSCA:1,2017-09-03T07:30:00Z,30.3288,-87.8293,2.039,0.75,1111122 
DISL,ioos:station:DISL:BSCA:1,2017-09-03T08:00:00Z,30.3288,-87.8293,2.052,4.15,1111122 
DISL,ioos:station:DISL:BSCA:1,2017-09-03T08:30:00Z,30.3288,-87.8293,2.068,3.82,1111122 
DISL,ioos:station:DISL:BSCA:1,2017-09-03T09:00:00Z,30.3288,-87.8293,2.074,1.86,1111122 
DISL,ioos:station:DISL:BSCA:1,2017-09-03T09:30:00Z,30.3288,-87.8293,2.105,1.11,1111122 
DISL,ioos:station:DISL:BSCA:1,2017-09-03T10:00:00Z,30.3288,-87.8293,2.129,2.37,1111122 
DISL,ioos:station:DISL:BSCA:1,2017-09-03T10:30:00Z,30.3288,-87.8293,2.162,1.59,1111122 
DISL,ioos:station:DISL:BSCA:1,2017-09-03T11:00:00Z,30.3288,-87.8293,2.185,0.86,1111122 
DISL,ioos:station:DISL:BSCA:1,2017-09-03T11:30:00Z,30.3288,-87.8293,2.206,0.52,1111122 
DISL,ioos:station:DISL:BSCA:1,2017-09-03T12:00:00Z,30.3288,-87.8293,2.221,0.52,1111122 
DISL,ioos:station:DISL:BSCA:1,2017-09-03T12:30:00Z,30.3288,-87.8293,2.243,0.52,1111122 
DISL,ioos:station:DISL:BSCA:1,2017-09-03T13:00:00Z,30.3288,-87.8293,2.259,0.94,1111122 
DISL,ioos:station:DISL:BSCA:1,2017-09-03T13:30:00Z,30.3288,-87.8293,2.27,1.66,1111122 
DISL,ioos:station:DISL:BSCA:1,2017-09-03T14:00:00Z,30.3288,-87.8293,2.276,0.53,1111122 
DISL,ioos:station:DISL:BSCA:1,2017-09-03T14:30:00Z,30.3288,-87.8293,2.274,1.66,1111122 
DISL,ioos:station:DISL:BSCA:1,2017-09-03T15:00:00Z,30.3288,-87.8293,2.273,1.87,1111122 
DISL,ioos:station:DISL:BSCA:1,2017-09-03T15:30:00Z,30.3288,-87.8293,2.27,0.56,1111122 
DISL,ioos:station:DISL:BSCA:1,2017-09-03T16:00:00Z,30.3288,-87.8293,2.262,2.17,1111122 
DISL,ioos:station:DISL:BSCA:1,2017-09-03T16:30:00Z,30.3288,-87.8293,2.237,2.32,1111122 
DISL,ioos:station:DISL:BSCA:1,2017-09-03T17:00:00Z,30.3288,-87.8293,2.217,2.98,1111122 
DISL,ioos:station:DISL:BSCA:1,2017-09-03T17:30:00Z,30.3288,-87.8293,2.174,3.21,1111122 
DISL,ioos:station:DISL:BSCA:1,2017-09-03T18:00:00Z,30.3288,-87.8293,2.137,1.76,1111122 
DISL,ioos:station:DISL:BSCA:1,2017-09-03T18:30:00Z,30.3288,-87.8293,2.101,2.37,1111122 
DISL,ioos:station:DISL:BSCA:1,2017-09-03T19:00:00Z,30.3288,-87.8293,2.091,2.15,1111122 
DISL,ioos:station:DISL:BSCA:1,2017-09-03T19:30:00Z,30.3288,-87.8293,2.063,3.06,1111122 
DISL,ioos:station:DISL:BSCA:1,2017-09-03T20:00:00Z,30.3288,-87.8293,2.028,3.88,1111122 
DISL,ioos:station:DISL:BSCA:1,2017-09-03T20:30:00Z,30.3288,-87.8293,1.995,2.56,1111122 
DISL,ioos:station:DISL:BSCA:1,2017-09-03T21:00:00Z,30.3288,-87.8293,1.966,4.82,1111122 
DISL,ioos:station:DISL:BSCA:1,2017-09-03T21:30:00Z,30.3288,-87.8293,1.923,4.55,1111122 
DISL,ioos:station:DISL:BSCA:1,2017-09-03T22:00:00Z,30.3288,-87.8293,1.899,4.05,1111122 
DISL,ioos:station:DISL:BSCA:1,2017-09-03T22:30:00Z,30.3288,-87.8293,1.88,2.95,1111122 
DISL,ioos:station:DISL:BSCA:1,2017-09-03T23:00:00Z,30.3288,-87.8293,1.867,2.9,1111122 
DISL,ioos:station:DISL:BSCA:1,2017-09-03T23:30:00Z,30.3288,-87.8293,1.847,1.9,1111122 
DISL,ioos:station:DISL:BSCA:1,2017-09-04T00:00:00Z,30.3288,-87.8293,1.848,1.64,1111122 
DISL,ioos:station:DISL:BSCA:1,2017-09-04T00:30:00Z,30.3288,-87.8293,1.85,1.33,1111122 
DISL,ioos:station:DISL:BSCA:1,2017-09-04T01:00:00Z,30.3288,-87.8293,1.843,1.68,1111122 
DISL,ioos:station:DISL:BSCA:1,2017-09-04T01:30:00Z,30.3288,-87.8293,1.85,2.35,1111122 
DISL,ioos:station:DISL:BSCA:1,2017-09-04T02:00:00Z,30.3288,-87.8293,1.856,0.54,1111122 
DISL,ioos:station:DISL:BSCA:1,2017-09-04T02:30:00Z,30.3288,-87.8293,1.866,0.52,1111122 
DISL,ioos:station:DISL:BSCA:1,2017-09-04T03:00:00Z,30.3288,-87.8293,1.883,0.52,1111122 
DISL,ioos:station:DISL:BSCA:1,2017-09-04T03:30:00Z,30.3288,-87.8293,1.891,0.53,1111122 
DISL,ioos:station:DISL:BSCA:1,2017-09-04T04:00:00Z,30.3288,-87.8293,1.925,0.55,1111122 
DISL,ioos:station:DISL:BSCA:1,2017-09-04T04:30:00Z,30.3288,-87.8293,1.945,0.82,1111122 
DISL,ioos:station:DISL:BSCA:1,2017-09-04T05:00:00Z,30.3288,-87.8293,1.965,0.52,1111122 
DISL,ioos:station:DISL:BSCA:1,2017-09-04T05:30:00Z,30.3288,-87.8293,1.981,0.62,1111122 
DISL,ioos:station:DISL:BSCA:1,2017-09-04T06:00:00Z,30.3288,-87.8293,2.001,0.69,1111122 
DISL,ioos:station:DISL:BSCA:1,2017-09-04T06:30:00Z,30.3288,-87.8293,2.014,0.79,1111122 
DISL,ioos:station:DISL:BSCA:1,2017-09-04T07:00:00Z,30.3288,-87.8293,2.033,1.06,1111122 
DISL,ioos:station:DISL:BSCA:1,2017-09-04T07:30:00Z,30.3288,-87.8293,2.047,1.1,1111122 
DISL,ioos:station:DISL:BSCA:1,2017-09-04T08:00:00Z,30.3288,-87.8293,2.058,1.45,1111122 
DISL,ioos:station:DISL:BSCA:1,2017-09-04T08:30:00Z,30.3288,-87.8293,2.082,0.59,1111122 
DISL,ioos:station:DISL:BSCA:1,2017-09-04T09:00:00Z,30.3288,-87.8293,2.11,1.4,1111122 
DISL,ioos:station:DISL:BSCA:1,2017-09-04T09:30:00Z,30.3288,-87.8293,2.126,0.95,1111122 
DISL,ioos:station:DISL:BSCA:1,2017-09-04T10:00:00Z,30.3288,-87.8293,2.151,1.36,1111122 
DISL,ioos:station:DISL:BSCA:1,2017-09-04T10:30:00Z,30.3288,-87.8293,2.163,0.52,1111122 
DISL,ioos:station:DISL:BSCA:1,2017-09-04T11:00:00Z,30.3288,-87.8293,2.184,0.51,1111122 
DISL,ioos:station:DISL:BSCA:1,2017-09-04T11:30:00Z,30.3288,-87.8293,2.206,0.58,1111122 
DISL,ioos:station:DISL:BSCA:1,2017-09-04T12:00:00Z,30.3288,-87.8293,2.227,1.07,1111122 
DISL,ioos:station:DISL:BSCA:1,2017-09-04T12:30:00Z,30.3288,-87.8293,2.257,1.59,1111122 
DISL,ioos:station:DISL:BSCA:1,2017-09-04T13:00:00Z,30.3288,-87.8293,2.278,1.75,1111122 
DISL,ioos:station:DISL:BSCA:1,2017-09-04T13:30:00Z,30.3288,-87.8293,2.29,1.72,1111122 
DISL,ioos:station:DISL:BSCA:1,2017-09-04T14:00:00Z,30.3288,-87.8293,2.31,1.52,1111122 
DISL,ioos:station:DISL:BSCA:1,2017-09-04T14:30:00Z,30.3288,-87.8293,2.311,1.39,1111122 
DISL,ioos:station:DISL:BSCA:1,2017-09-04T15:00:00Z,30.3288,-87.8293,2.315,2.33,1111122 
DISL,ioos:station:DISL:BSCA:1,2017-09-04T15:30:00Z,30.3288,-87.8293,2.327,2.31,1111122 
DISL,ioos:station:DISL:BSCA:1,2017-09-04T16:00:00Z,30.3288,-87.8293,2.308,2.12,1111122 
DISL,ioos:station:DISL:BSCA:1,2017-09-04T16:30:00Z,30.3288,-87.8293,2.302,1.07,1111122 
DISL,ioos:station:DISL:BSCA:1,2017-09-04T17:00:00Z,30.3288,-87.8293,2.282,1.94,1111122 
DISL,ioos:station:DISL:BSCA:1,2017-09-04T17:30:00Z,30.3288,-87.8293,2.255,1.74,1111122 
DISL,ioos:station:DISL:BSCA:1,2017-09-04T18:00:00Z,30.3288,-87.8293,2.239,1.45,1111122 
DISL,ioos:station:DISL:BSCA:1,2017-09-04T18:30:00Z,30.3288,-87.8293,2.206,1.36,1111122 
DISL,ioos:station:DISL:BSCA:1,2017-09-04T19:00:00Z,30.3288,-87.8293,2.169,1.54,1111122 
DISL,ioos:station:DISL:BSCA:1,2017-09-04T19:30:00Z,30.3288,-87.8293,2.129,2.14,1111122 
DISL,ioos:station:DISL:BSCA:1,2017-09-04T20:00:00Z,30.3288,-87.8293,2.096,1.85,1111122 
DISL,ioos:station:DISL:BSCA:1,2017-09-04T20:30:00Z,30.3288,-87.8293,2.064,1.91,1111122 
DISL,ioos:station:DISL:BSCA:1,2017-09-04T21:00:00Z,30.3288,-87.8293,2.031,1.1,1111122 
DISL,ioos:station:DISL:BSCA:1,2017-09-04T21:30:00Z,30.3288,-87.8293,2.011,2.75,1111122 
DISL,ioos:station:DISL:BSCA:1,2017-09-04T22:00:00Z,30.3288,-87.8293,1.981,2.76,1111122 
DISL,ioos:station:DISL:BSCA:1,2017-09-04T22:30:00Z,30.3288,-87.8293,1.956,2.99,1111122 
DISL,ioos:station:DISL:BSCA:1,2017-09-04T23:00:00Z,30.3288,-87.8293,1.929,1.61,1111122 
DISL,ioos:station:DISL:BSCA:1,2017-09-04T23:30:00Z,30.3288,-87.8293,1.913,0.81,1111122 
DISL,ioos:station:DISL:BSCA:1,2017-09-05T00:00:00Z,30.3288,-87.8293,1.902,0.57,1111122 
DISL,ioos:station:DISL:BSCA:1,2017-09-05T00:30:00Z,30.3288,-87.8293,1.882,0.54,1111122 
DISL,ioos:station:DISL:BSCA:1,2017-09-05T01:00:00Z,30.3288,-87.8293,1.881,0.54,1111122 
DISL,ioos:station:DISL:BSCA:1,2017-09-05T01:30:00Z,30.3288,-87.8293,1.881,0.51,1111122 
DISL,ioos:station:DISL:BSCA:1,2017-09-05T02:00:00Z,30.3288,-87.8293,1.904,0.93,1111122 
DISL,ioos:station:DISL:BSCA:1,2017-09-05T02:30:00Z,30.3288,-87.8293,1.903,0.52,1111122 
DISL,ioos:station:DISL:BSCA:1,2017-09-05T03:00:00Z,30.3288,-87.8293,1.922,0.7,1111122 
DISL,ioos:station:DISL:BSCA:1,2017-09-05T03:30:00Z,30.3288,-87.8293,1.94,1.36,1111122 
DISL,ioos:station:DISL:BSCA:1,2017-09-05T04:00:00Z,30.3288,-87.8293,1.97,0.51,1111122 
DISL,ioos:station:DISL:BSCA:1,2017-09-05T04:30:00Z,30.3288,-87.8293,1.991,1.34,1111122 
DISL,ioos:station:DISL:BSCA:1,2017-09-05T05:00:00Z,30.3288,-87.8293,2.001,1.92,1111122 
DISL,ioos:station:DISL:BSCA:1,2017-09-05T05:30:00Z,30.3288,-87.8293,2.019,0.51,1111122 
DISL,ioos:station:DISL:BSCA:1,2017-09-05T06:00:00Z,30.3288,-87.8293,2.037,2.43,1111122 
DISL,ioos:station:DISL:BSCA:1,2017-09-05T06:30:00Z,30.3288,-87.8293,2.057,3.55,1111122 
DISL,ioos:station:DISL:BSCA:1,2017-09-05T07:00:00Z,30.3288,-87.8293,2.078,2.05,1111122 
DISL,ioos:station:DISL:BSCA:1,2017-09-05T07:30:00Z,30.3288,-87.8293,2.091,4.34,1111122 
DISL,ioos:station:DISL:BSCA:1,2017-09-05T08:00:00Z,30.3288,-87.8293,2.096,4.45,1111122 
DISL,ioos:station:DISL:BSCA:1,2017-09-05T08:30:00Z,30.3288,-87.8293,2.102,2.25,1111122 
DISL,ioos:station:DISL:BSCA:1,2017-09-05T09:00:00Z,30.3288,-87.8293,2.109,5.02,1111122 
DISL,ioos:station:DISL:BSCA:1,2017-09-05T09:30:00Z,30.3288,-87.8293,2.125,3.36,1111122 
DISL,ioos:station:DISL:BSCA:1,2017-09-05T10:00:00Z,30.3288,-87.8293,2.137,2.27,1111122 
DISL,ioos:station:DISL:BSCA:1,2017-09-05T10:30:00Z,30.3288,-87.8293,2.146,2.57,1111122 
DISL,ioos:station:DISL:BSCA:1,2017-09-05T11:00:00Z,30.3288,-87.8293,2.162,2.12,1111122 
DISL,ioos:station:DISL:BSCA:1,2017-09-05T11:30:00Z,30.3288,-87.8293,2.175,1.22,1111122 
DISL,ioos:station:DISL:BSCA:1,2017-09-05T12:00:00Z,30.3288,-87.8293,2.19,2.61,1111122 
DISL,ioos:station:DISL:BSCA:1,2017-09-05T12:30:00Z,30.3288,-87.8293,2.215,0.76,1111122 
DISL,ioos:station:DISL:BSCA:1,2017-09-05T13:00:00Z,30.3288,-87.8293,2.242,0.52,1111122 
DISL,ioos:station:DISL:BSCA:1,2017-09-05T13:30:00Z,30.3288,-87.8293,2.26,1.51,1111122 
DISL,ioos:station:DISL:BSCA:1,2017-09-05T14:00:00Z,30.3288,-87.8293,2.275,0.93,1111122 
DISL,ioos:station:DISL:BSCA:1,2017-09-05T14:30:00Z,30.3288,-87.8293,2.286,1.17,1111122 
DISL,ioos:station:DISL:BSCA:1,2017-09-05T15:00:00Z,30.3288,-87.8293,2.301,2.04,1111122 
DISL,ioos:station:DISL:BSCA:1,2017-09-05T15:30:00Z,30.3288,-87.8293,2.309,1.93,1111122 
DISL,ioos:station:DISL:BSCA:1,2017-09-05T16:00:00Z,30.3288,-87.8293,2.313,2.85,1111122 
DISL,ioos:station:DISL:BSCA:1,2017-09-05T16:30:00Z,30.3288,-87.8293,2.318,2.81,1111122 
DISL,ioos:station:DISL:BSCA:1,2017-09-05T17:00:00Z,30.3288,-87.8293,2.324,2.44,1111122 
DISL,ioos:station:DISL:BSCA:1,2017-09-05T17:30:00Z,30.3288,-87.8293,2.311,3.01,1111122 
DISL,ioos:station:DISL:BSCA:1,2017-09-05T18:00:00Z,30.3288,-87.8293,2.305,2.17,1111122 
DISL,ioos:station:DISL:BSCA:1,2017-09-05T18:30:00Z,30.3288,-87.8293,2.286,4.3,1111122 
DISL,ioos:station:DISL:BSCA:1,2017-09-05T19:00:00Z,30.3288,-87.8293,2.271,2.5,1111122 
DISL,ioos:station:DISL:BSCA:1,2017-09-05T19:30:00Z,30.3288,-87.8293,2.229,0.93,1111122 
DISL,ioos:station:DISL:BSCA:1,2017-09-05T20:00:00Z,30.3288,-87.8293,2.195,0.77,1111122 
DISL,ioos:station:DISL:BSCA:1,2017-09-05T20:30:00Z,30.3288,-87.8293,2.165,1.23,1111122 
DISL,ioos:station:DISL:BSCA:1,2017-09-05T21:00:00Z,30.3288,-87.8293,2.131,2.89,1111122 
DISL,ioos:station:DISL:BSCA:1,2017-09-05T21:30:00Z,30.3288,-87.8293,2.108,4.33,1111122 
DISL,ioos:station:DISL:BSCA:1,2017-09-05T22:00:00Z,30.3288,-87.8293,2.069,4.58,1111122 
DISL,ioos:station:DISL:BSCA:1,2017-09-05T22:30:00Z,30.3288,-87.8293,2.056,4.41,1111122 
DISL,ioos:station:DISL:BSCA:1,2017-09-05T23:00:00Z,30.3288,-87.8293,2.037,5.05,1111122 
DISL,ioos:station:DISL:BSCA:1,2017-09-05T23:30:00Z,30.3288,-87.8293,2.016,4.46,1111122 
DISL,ioos:station:DISL:BSCA:1,2017-09-06T00:00:00Z,30.3288,-87.8293,2.013,6.4,1111122 
DISL,ioos:station:DISL:BSCA:1,2017-09-06T00:30:00Z,30.3288,-87.8293,2.019,5.64,1111122 
DISL,ioos:station:DISL:BSCA:1,2017-09-06T01:00:00Z,30.3288,-87.8293,2.017,6.43,1111122 
DISL,ioos:station:DISL:BSCA:1,2017-09-06T01:30:00Z,30.3288,-87.8293,2.053,7.24,1111122 
DISL,ioos:station:DISL:BSCA:1,2017-09-06T02:00:00Z,30.3288,-87.8293,2.042,6.62,1111122 
DISL,ioos:station:DISL:BSCA:1,2017-09-06T02:30:00Z,30.3288,-87.8293,2.062,6.43,1111122 
DISL,ioos:station:DISL:BSCA:1,2017-09-06T03:00:00Z,30.3288,-87.8293,2.076,6.66,1111122 
DISL,ioos:station:DISL:BSCA:1,2017-09-06T03:30:00Z,30.3288,-87.8293,2.079,6.52,1111122 
DISL,ioos:station:DISL:BSCA:1,2017-09-06T04:00:00Z,30.3288,-87.8293,2.077,6.6,1111122 
DISL,ioos:station:DISL:BSCA:1,2017-09-06T04:30:00Z,30.3288,-87.8293,2.061,6.67,1111122 
DISL,ioos:station:DISL:BSCA:1,2017-09-06T05:00:00Z,30.3288,-87.8293,2.066,6.64,1111122 
DISL,ioos:station:DISL:BSCA:1,2017-09-06T05:30:00Z,30.3288,-87.8293,2.054,6.6,1111122 
DISL,ioos:station:DISL:BSCA:1,2017-09-06T06:00:00Z,30.3288,-87.8293,2.066,6.65,1111122 
DISL,ioos:station:DISL:BSCA:1,2017-09-06T06:30:00Z,30.3288,-87.8293,2.086,6.62,1111122 
DISL,ioos:station:DISL:BSCA:1,2017-09-06T07:00:00Z,30.3288,-87.8293,2.076,6.79,1111122 
DISL,ioos:station:DISL:BSCA:1,2017-09-06T07:30:00Z,30.3288,-87.8293,2.152,6.62,1111122 
DISL,ioos:station:DISL:BSCA:1,2017-09-06T08:00:00Z,30.3288,-87.8293,2.17,5.75,1111122 
DISL,ioos:station:DISL:BSCA:1,2017-09-06T08:30:00Z,30.3288,-87.8293,2.066,6.45,1111122 
DISL,ioos:station:DISL:BSCA:1,2017-09-06T09:00:00Z,30.3288,-87.8293,2.006,6.47,1111122 
DISL,ioos:station:DISL:BSCA:1,2017-09-06T09:30:00Z,30.3288,-87.8293,1.94,5.71,1111122 
DISL,ioos:station:DISL:BSCA:1,2017-09-06T10:00:00Z,30.3288,-87.8293,1.966,5.8,1111122 
DISL,ioos:station:DISL:BSCA:1,2017-09-06T10:30:00Z,30.3288,-87.8293,2.027,5.74,1111122 
DISL,ioos:station:DISL:BSCA:1,2017-09-06T11:00:00Z,30.3288,-87.8293,2.096,5.52,1111122 
DISL,ioos:station:DISL:BSCA:1,2017-09-06T11:30:00Z,30.3288,-87.8293,2.156,5.07,1111122 
DISL,ioos:station:DISL:BSCA:1,2017-09-06T12:00:00Z,30.3288,-87.8293,2.201,4.72,1111122 
DISL,ioos:station:DISL:BSCA:1,2017-09-06T12:30:00Z,30.3288,-87.8293,2.222,5.57,1111122 
DISL,ioos:station:DISL:BSCA:1,2017-09-06T13:00:00Z,30.3288,-87.8293,2.197,5.58,1111122 
DISL,ioos:station:DISL:BSCA:1,2017-09-06T13:30:00Z,30.3288,-87.8293,2.189,5.38,1111122 
DISL,ioos:station:DISL:BSCA:1,2017-09-06T14:00:00Z,30.3288,-87.8293,2.189,4.85,1111122 
DISL,ioos:station:DISL:BSCA:1,2017-09-06T14:30:00Z,30.3288,-87.8293,2.227,4.5,1111122 
DISL,ioos:station:DISL:BSCA:1,2017-09-06T15:00:00Z,30.3288,-87.8293,2.257,4.71,1111122 
DISL,ioos:station:DISL:BSCA:1,2017-09-06T15:30:00Z,30.3288,-87.8293,2.278,4.7,1111122 